Coffman Cove FAA Web Cam AK US FAA-ALASKA current weather conditions

sailwx.info

Wind from 107 at 9 knots

Air temperature 3.7° C
Dewpoint 2.7° C

Last reported at 2020-Jan-22 13:00 UTC.
Time now 2020-Jan-22 13:56 UTC

Location: N 56°00' W 132°49'.
View on Google Maps.

See reports from other nearby stations

  
Tides and Currents Weather Stations Pressure Air Temp Water Temp Dewpoint Dewpoint Depression Visibility Wind Speed Wind Dir Waves Ship Positions
date/time (UTC)wind fromknots sea level pressurealtimeterstation pressurevisibilityair tempwater tempwave heightnotes
2020-Jan-22 13:00 107 9 3.7
2020-Jan-22 12:50 058 3 3.6
2020-Jan-22 12:40 076 10 3.7
2020-Jan-22 12:30 060 3 3.7
2020-Jan-22 12:20 110 8 3.7
2020-Jan-22 12:10 123 3 3.7
2020-Jan-22 12:00 162 4 3.7
2020-Jan-22 11:50 109 4 3.7
2020-Jan-22 11:40 146 3 3.6
2020-Jan-22 11:30 199 2 3.6
2020-Jan-22 11:20 104 4 3.5
2020-Jan-22 11:10 134 3 3.4
2020-Jan-22 11:00 074 3 3.4
2020-Jan-22 10:50 123 2 3.5
2020-Jan-22 10:40 145 7 3.4
2020-Jan-22 10:30 160 3 3.5
2020-Jan-22 10:20 098 1 3.4
2020-Jan-22 10:10 165 3 3.4
2020-Jan-22 10:00 127 6 3.4
2020-Jan-22 09:50 130 1 3.3
2020-Jan-22 09:40 131 2 3.3
2020-Jan-22 09:30 094 5 3.3
2020-Jan-22 09:20 326 0 3.3
2020-Jan-22 09:10 101 1 3.3
2020-Jan-22 09:00 113 2 3.3
2020-Jan-22 08:50 078 6 3.3
2020-Jan-22 08:40 116 6 3.3
2020-Jan-22 08:30 114 10 3.3
2020-Jan-22 08:20 098 2 3.4
2020-Jan-22 08:10 135 5 3.4
2020-Jan-22 08:00 119 4 3.4
2020-Jan-22 07:50 045 2 3.3
2020-Jan-22 07:40 090 3 3.4
2020-Jan-22 07:30 083 3 3.4
2020-Jan-22 07:20 023 0 3.3
2020-Jan-22 07:10 055 2 3.4
2020-Jan-22 07:00 042 2 3.3
2020-Jan-22 06:50 100 4 3.3
2020-Jan-22 06:40 080 4 3.3
2020-Jan-22 06:30 121 5 3.3
2020-Jan-22 06:20 100 10 3.2
2020-Jan-22 06:10 087 4 3.3
2020-Jan-22 06:00 118 6 3.2
2020-Jan-22 05:50 086 4 3.2
2020-Jan-22 05:40 113 3 3.2
2020-Jan-22 05:30 093 11 3.2
2020-Jan-22 05:20 126 9 3.2
2020-Jan-22 05:10 109 2 3.1
2020-Jan-22 05:00 094 4 3.1
2020-Jan-22 04:50 114 7 3.1
2020-Jan-22 04:40 116 4 3.1
2020-Jan-22 04:30 080 3 3.0
2020-Jan-22 04:20 101 8 3.0
2020-Jan-22 04:10 105 9 3.0
2020-Jan-22 04:00 110 3 3.0
2020-Jan-22 03:50 110 4 3.0
2020-Jan-22 03:40 095 7 3.0
2020-Jan-22 03:30 122 2 3.0
2020-Jan-22 03:20 103 7 3.0
2020-Jan-22 03:10 098 6 2.9
2020-Jan-22 03:00 099 5 3.0
2020-Jan-22 02:50 088 4 3.0
2020-Jan-22 02:40 112 4 2.9
2020-Jan-22 02:30 098 5 2.9
2020-Jan-22 02:20 087 6 2.8
2020-Jan-22 02:10 087 6 2.5
2020-Jan-22 02:00 066 1 2.3
2020-Jan-22 01:50 072 4 2.3
2020-Jan-22 01:40 108 2 2.2
2020-Jan-22 01:30 085 5 2.3
2020-Jan-22 01:20 085 7 2.4
2020-Jan-22 01:10 086 5 2.6
2020-Jan-22 01:00 083 4 2.6
2020-Jan-22 00:50 083 5 2.5
2020-Jan-22 00:40 076 3 2.6
2020-Jan-22 00:30 055 2 2.6
2020-Jan-22 00:20 048 2 2.5
2020-Jan-22 00:10 054 3 2.6
2020-Jan-22 00:00 072 1 2.6
2020-Jan-21 23:50 117 2 2.5
2020-Jan-21 23:40 092 3 2.4
2020-Jan-21 23:30 100 4 2.1
2020-Jan-21 23:20 092 6 2.1
2020-Jan-21 23:10 088 6 2.1
2020-Jan-21 23:00 091 4 2.2
2020-Jan-21 22:50 062 4 2.2
2020-Jan-21 22:40 076 4 2.1
2020-Jan-21 22:30 060 5 2.2
2020-Jan-21 22:20 074 6 2.1
2020-Jan-21 22:10 079 4 2.0
2020-Jan-21 22:00 090 4 1.9
2020-Jan-21 21:50 091 2 1.8
2020-Jan-21 21:40 068 3 1.9
2020-Jan-21 21:30 073 3 2.0
2020-Jan-21 21:20 057 2 2.0
2020-Jan-21 21:10 025 3 1.9
2020-Jan-21 21:00 038 2 1.9
2020-Jan-21 20:50 025 2 1.9
2020-Jan-21 20:40 346 0 1.8
2020-Jan-21 20:30 023 4 1.9
2020-Jan-21 20:20 021 3 2.0
2020-Jan-21 20:10 352 2 2.2
2020-Jan-21 20:00 056 1 2.3
2020-Jan-21 19:50 255 1 2.1
2020-Jan-21 19:40 231 3 2.0
2020-Jan-21 19:30 248 4 2.0
2020-Jan-21 19:20 255 2 1.9
2020-Jan-21 19:10 218 4 1.8
2020-Jan-21 19:00 270 3 1.8
2020-Jan-21 18:50 237 4 1.9
2020-Jan-21 18:40 241 3 1.9
2020-Jan-21 18:30 239 2 1.8
2020-Jan-21 18:20 240 3 1.5
2020-Jan-21 18:10 241 4 1.6
2020-Jan-21 18:00 254 2 1.7
2020-Jan-21 17:50 215 2 1.4
2020-Jan-21 17:40 223 2 1.5
2020-Jan-21 17:30 217 2 1.6
2020-Jan-21 17:20 248 2 1.7
2020-Jan-21 17:10 241 2 1.9
2020-Jan-21 17:00 251 3 1.9
2020-Jan-21 16:50 260 2 1.9
2020-Jan-21 16:40 260 4 1.8
2020-Jan-21 16:30 263 4 1.8
2020-Jan-21 16:20 257 4 1.9
2020-Jan-21 16:10 254 5 1.8
2020-Jan-21 16:00 244 4 1.6
2020-Jan-21 15:50 244 3 1.6
2020-Jan-21 15:40 246 4 1.8
2020-Jan-21 15:30 230 2 1.7
2020-Jan-21 15:20 213 5 1.7
2020-Jan-21 15:10 260 6 1.5
2020-Jan-21 15:00 239 3 1.5
2020-Jan-21 14:50 242 7 1.6
2020-Jan-21 14:40 237 5 1.6
2020-Jan-21 14:30 219 6 1.7
2020-Jan-21 14:20 247 5 1.8
2020-Jan-21 14:10 236 6 1.9
2020-Jan-21 14:00 216 6 1.8
2020-Jan-21 13:50 228 4 1.9
2020-Jan-21 13:40 226 4 2.0
2020-Jan-21 13:30 207 4 2.0
2020-Jan-21 13:20 218 5 1.9
2020-Jan-21 13:10 240 4 1.9
2020-Jan-21 13:00 229 4 2.0
2020-Jan-21 12:50 224 3 2.0
2020-Jan-21 12:40 241 4 2.0
2020-Jan-21 12:30 243 3 2.1
2020-Jan-21 12:20 225 3 1.9
2020-Jan-21 12:10 225 4 1.9
2020-Jan-21 12:00 233 3 2.1
2020-Jan-21 11:50 206 2 2.3
2020-Jan-21 11:40 210 2 2.8
2020-Jan-21 11:30 038 2 2.9
2020-Jan-21 11:20 093 2 2.8
2020-Jan-21 11:10 062 4 2.7
2020-Jan-21 11:00 061 3 2.7
2020-Jan-21 10:50 012 4 2.7
2020-Jan-21 10:40 007 1 2.9
2020-Jan-21 10:30 205 0 3.0
2020-Jan-21 10:20 094 1 3.0
2020-Jan-21 10:10 041 2 3.1
2020-Jan-21 10:00 013 0 3.1
2020-Jan-21 09:50 080 1 3.2
2020-Jan-21 09:40 048 1 3.0
2020-Jan-21 09:30 089 2 2.9
2020-Jan-21 09:20 077 2 3.0
2020-Jan-21 09:10 070 3 3.1
2020-Jan-21 09:00 060 5 3.3
2020-Jan-21 08:50 070 6 3.2
2020-Jan-21 08:40 080 7 3.3
2020-Jan-21 08:30 088 6 2.9
2020-Jan-21 08:20 080 3 3.0
2020-Jan-21 08:10 087 5 3.2
2020-Jan-21 08:00 094 4 3.3
2020-Jan-21 07:50 095 4 3.3
2020-Jan-21 07:40 087 3 3.3
2020-Jan-21 07:30 092 6 3.3
2020-Jan-21 07:20 098 6 3.3
2020-Jan-21 07:10 081 2 3.4
2020-Jan-21 07:00 101 6 3.4
2020-Jan-21 06:50 099 10 3.4
2020-Jan-21 06:40 084 4 3.5
2020-Jan-21 06:30 090 5 3.5
2020-Jan-21 06:20 066 4 3.6
2020-Jan-21 06:10 092 8 3.4
2020-Jan-21 06:00 114 6 3.3
2020-Jan-21 05:50 118 2 3.2
2020-Jan-21 05:40 081 5 3.2
2020-Jan-21 05:30 094 3 3.3
2020-Jan-21 05:20 088 3 3.2
2020-Jan-21 05:10 086 3 3.3
2020-Jan-21 05:00 044 1 3.3
2020-Jan-21 04:50 107 6 3.3
2020-Jan-21 04:40 123 2 3.0
2020-Jan-21 04:30 112 4 3.1
2020-Jan-21 04:20 084 2 3.0
2020-Jan-21 04:10 089 4 3.0
2020-Jan-21 04:00 112 3 3.1
2020-Jan-21 03:50 122 2 3.1
2020-Jan-21 03:40 156 2 3.1
2020-Jan-21 03:30 097 4 2.9
2020-Jan-21 03:20 089 4 2.8
2020-Jan-21 03:10 096 12 2.8
2020-Jan-21 03:00 099 10 2.7
2020-Jan-21 02:50 087 4 2.7
2020-Jan-21 02:40 092 7 2.7
2020-Jan-21 02:30 109 3 2.8
2020-Jan-21 02:20 113 4 2.9
2020-Jan-21 02:10 109 3 2.9
2020-Jan-21 02:00 096 4 2.9
2020-Jan-21 01:50 118 4 2.9
2020-Jan-21 01:40 093 5 2.9
2020-Jan-21 01:30 112 7 2.9
2020-Jan-21 01:20 102 6 2.9
2020-Jan-21 01:10 082 4 2.8
2020-Jan-21 01:00 099 6 2.9
2020-Jan-21 00:50 104 4 2.9
2020-Jan-21 00:40 079 3 2.9
2020-Jan-21 00:30 075 3 3.0
2020-Jan-21 00:20 082 4 3.0
2020-Jan-21 00:10 169 1 3.0
2020-Jan-21 00:00 084 4 3.0
2020-Jan-20 23:50 089 5 3.0
2020-Jan-20 23:40 093 7 3.0
2020-Jan-20 23:30 098 7 3.0
2020-Jan-20 23:20 087 3 3.1
2020-Jan-20 23:10 098 8 3.2
2020-Jan-20 23:00 096 4 3.2
2020-Jan-20 22:50 091 7 3.2
2020-Jan-20 22:40 083 6 3.1
2020-Jan-20 22:30 094 4 3.2
2020-Jan-20 22:20 085 3 3.2
2020-Jan-20 22:10 075 3 3.3
2020-Jan-20 22:00 080 5 3.4
2020-Jan-20 21:50 095 6 3.4
2020-Jan-20 21:40 091 7 3.4
2020-Jan-20 21:30 098 6 3.4
2020-Jan-20 21:20 122 6 3.5
2020-Jan-20 21:10 115 6 3.5
2020-Jan-20 21:00 110 9 3.2
2020-Jan-20 20:50 118 4 3.0
2020-Jan-20 20:40 122 5 3.0
2020-Jan-20 20:30 084 9 3.1
2020-Jan-20 20:20 100 10 3.0
2020-Jan-20 20:10 137 3 3.0
2020-Jan-20 20:00 092 8 3.0
2020-Jan-20 19:50 097 8 2.9
2020-Jan-20 19:40 101 9 2.9
2020-Jan-20 19:30 086 7 3.1
2020-Jan-20 19:20 096 6 3.1
2020-Jan-20 19:10 107 5 2.7
2020-Jan-20 19:00 094 4 2.5
2020-Jan-20 18:50 103 5 2.6
2020-Jan-20 18:40 103 9 2.4
2020-Jan-20 18:30 108 6 2.4
2020-Jan-20 18:20 096 7 2.3
2020-Jan-20 18:10 085 4 2.3
2020-Jan-20 18:00 103 8 2.3
2020-Jan-20 17:50 100 5 2.3
2020-Jan-20 17:40 099 7 2.4
2020-Jan-20 17:30 095 4 2.2
2020-Jan-20 17:20 122 7 2.3
2020-Jan-20 17:10 110 6 2.1
2020-Jan-20 17:00 101 5 1.7
2020-Jan-20 16:50 101 6 2.1
2020-Jan-20 16:40 102 5 2.0
2020-Jan-20 16:30 108 8 1.9
2020-Jan-20 16:20 099 8 1.9
2020-Jan-20 16:10 096 7 1.9
2020-Jan-20 16:00 119 2 1.9
2020-Jan-20 15:50 100 5 2.0
2020-Jan-20 15:40 105 3 1.9
2020-Jan-20 15:30 103 6 1.9
2020-Jan-20 15:20 085 5 1.8
2020-Jan-20 15:10 100 8 1.8
2020-Jan-20 15:00 104 5 1.8
2020-Jan-20 14:50 098 5 1.7
2020-Jan-20 14:40 084 6 1.7
2020-Jan-20 14:30 098 3 1.7
2020-Jan-20 14:20 102 2 1.7
2020-Jan-20 14:10 079 2 1.7
2020-Jan-20 14:00 114 4 1.7
2020-Jan-20 13:50 131 2 1.6
2020-Jan-20 13:40 110 2 1.7
2020-Jan-20 13:30 130 1 1.8
2020-Jan-20 13:20 133 7 1.8
2020-Jan-20 13:10 125 3 1.9
2020-Jan-20 13:00 089 2 2.0